COSMOS 2407

Last updated on Sat Sep 05 2026 00:03:35 GMT+0000 (Coordinated Universal Time)

1 28380U 04028A 26247.65990110 .00000056 00000+0 40983-4 0 9995 2 28380 82.9633 15.9606 0039867 31.9153 339.6103 13.76339534110816
UTC large
Height (km)
Speed (km/s)
/
Latitude / Longitude
Inclination (degrees)
Orbital Period (minutes)
Azimuth
Elevation
Range (km)
Doppler Factor

Next 0 passes for location: London (51.5072 / 0.1276)

No passes found over London.
COSMOS 2407